Powrót do katalogu

STARLINK-32777

AktywnyŁącznośćVLEO
NORAD 62525·PAYLOAD·🇺🇸 United States

Wystrzelony Jan 8, 2025 z Cape Canaveral Space Force Station

Loading…

Następne Przeloty (najbliższe 24 godziny)

TLE

ŚwieżeSource: CelesTrak SupGP

Epoka: Sep 14, 2026, 21:08 UTC

1 62525C 25004Q   26257.88104167  .00032599  00000+0  11809-2 0  2573
2 62525  43.0022 231.7694 0001330 261.1201 289.0043 15.27557407    15

Śledź STARLINK-32777 w czasie rzeczywistym z AllMySat

Download on the App Store